Time,TemperatureF,DewpointF,PressureIn,WindDirection,WindDirectionDegrees,WindSpeedMPH,WindSpeedGustMPH,Humidity,HourlyPrecipIn,Conditions,Clouds,dailyrainin,SolarRadiationWatts/m^2,SoftwareType,DateUTC
2013-06-13 00:02:00,65.0,46.0,-100.00,NNW,341,3.0,11.0,51,0.00,,,0.01,0.000000,,2013-06-13 05:02:00,
2013-06-13 00:12:00,65.0,46.0,-100.00,NNW,341,3.0,11.0,51,0.00,,,0.01,0.000000,,2013-06-13 05:12:00,
2013-06-13 00:43:00,62.0,47.0,-100.00,NNW,328,3.0,7.0,58,0.00,,,0.01,0.000000,,2013-06-13 05:43:00,
2013-06-13 00:53:00,62.0,47.0,-100.00,NNW,328,3.0,7.0,58,0.00,,,0.01,0.000000,,2013-06-13 05:53:00,
2013-06-13 01:02:00,62.0,47.0,-100.00,NNW,328,3.0,7.0,58,0.00,,,0.01,0.000000,,2013-06-13 06:02:00,
2013-06-13 01:11:00,62.0,47.0,-100.00,NNW,328,3.0,7.0,58,0.00,,,0.01,0.000000,,2013-06-13 06:11:00,
2013-06-13 01:44:00,59.0,47.0,-100.00,NNW,340,3.0,7.0,64,0.00,,,0.01,0.000000,,2013-06-13 06:44:00,
2013-06-13 01:52:00,59.0,47.0,-100.00,NNW,340,3.0,7.0,64,0.00,,,0.01,0.000000,,2013-06-13 06:52:00,
2013-06-13 02:01:00,59.0,47.0,-100.00,NNW,340,3.0,7.0,64,0.00,,,0.01,0.000000,,2013-06-13 07:01:00,
2013-06-13 02:11:00,59.0,47.0,-100.00,NNW,340,3.0,7.0,64,0.00,,,0.01,0.000000,,2013-06-13 07:11:00,
2013-06-13 02:42:00,58.0,48.0,-100.00,NNW,336,3.0,7.0,69,0.00,,,0.01,0.000000,,2013-06-13 07:42:00,
2013-06-13 02:52:00,58.0,48.0,-100.00,NNW,336,3.0,7.0,69,0.00,,,0.01,0.000000,,2013-06-13 07:52:00,
2013-06-13 03:01:00,58.0,48.0,-100.00,NNW,336,3.0,7.0,69,0.00,,,0.01,0.000000,,2013-06-13 08:01:00,
2013-06-13 03:11:00,58.0,48.0,-100.00,NNW,336,3.0,7.0,69,0.00,,,0.01,0.000000,,2013-06-13 08:11:00,
2013-06-13 03:43:00,57.0,48.0,-100.00,NNW,340,3.0,10.0,71,0.00,,,0.01,0.000000,,2013-06-13 08:43:00,
2013-06-13 03:52:00,57.0,48.0,-100.00,NNW,340,3.0,10.0,71,0.00,,,0.01,0.000000,,2013-06-13 08:52:00,
2013-06-13 04:02:00,57.0,48.0,-100.00,NNW,340,3.0,10.0,71,0.00,,,0.01,0.000000,,2013-06-13 09:02:00,
2013-06-13 04:12:00,57.0,48.0,-100.00,NNW,340,3.0,10.0,71,0.00,,,0.01,0.000000,,2013-06-13 09:12:00,
2013-06-13 04:42:00,54.0,47.0,-100.00,NNW,338,2.0,6.0,78,0.00,,,0.01,0.000000,,2013-06-13 09:42:00,
2013-06-13 04:52:00,54.0,47.0,-100.00,NNW,338,2.0,6.0,78,0.00,,,0.01,0.000000,,2013-06-13 09:52:00,
2013-06-13 05:01:00,54.0,47.0,-100.00,NNW,338,2.0,6.0,78,0.00,,,0.01,0.000000,,2013-06-13 10:01:00,
2013-06-13 05:11:00,54.0,47.0,-100.00,NNW,338,2.0,6.0,78,0.00,,,0.01,0.000000,,2013-06-13 10:11:00,
2013-06-13 05:43:00,51.0,48.0,-100.00,NW,321,1.0,4.0,88,0.00,,,0.01,1.000000,,2013-06-13 10:43:00,
2013-06-13 05:53:00,51.0,48.0,-100.00,NW,321,1.0,4.0,88,0.00,,,0.01,1.000000,,2013-06-13 10:53:00,
2013-06-13 06:02:00,51.0,48.0,-100.00,NW,321,1.0,4.0,88,0.00,,,0.01,1.000000,,2013-06-13 11:02:00,
2013-06-13 06:11:00,51.0,48.0,-100.00,NW,321,1.0,4.0,88,0.00,,,0.01,1.000000,,2013-06-13 11:11:00,
2013-06-13 06:42:00,54.0,49.0,-100.00,NNW,334,1.0,5.0,84,0.00,,,0.01,26.000000,,2013-06-13 11:42:00,
2013-06-13 06:52:00,54.0,49.0,-100.00,NNW,334,1.0,5.0,84,0.00,,,0.01,26.000000,,2013-06-13 11:52:00,
2013-06-13 07:01:00,54.0,49.0,-100.00,NNW,334,1.0,5.0,84,0.00,,,0.01,26.000000,,2013-06-13 12:01:00,
2013-06-13 07:11:00,54.0,49.0,-100.00,NNW,334,1.0,5.0,84,0.00,,,0.01,26.000000,,2013-06-13 12:11:00,
2013-06-13 07:43:00,60.0,51.0,-100.00,North,2,2.0,7.0,71,0.00,,,0.01,169.000000,,2013-06-13 12:43:00,
2013-06-13 07:52:00,60.0,51.0,-100.00,North,2,2.0,7.0,71,0.00,,,0.01,169.000000,,2013-06-13 12:52:00,
2013-06-13 08:01:00,60.0,51.0,-100.00,North,2,2.0,7.0,71,0.00,,,0.01,169.000000,,2013-06-13 13:01:00,
2013-06-13 08:11:00,60.0,51.0,-100.00,North,2,2.0,7.0,71,0.00,,,0.01,169.000000,,2013-06-13 13:11:00,
2013-06-13 08:43:00,64.0,52.0,-100.00,ENE,60,3.0,6.0,65,0.00,,,0.01,330.000000,,2013-06-13 13:43:00,
2013-06-13 08:53:00,64.0,52.0,-100.00,ENE,60,3.0,6.0,65,0.00,,,0.01,330.000000,,2013-06-13 13:53:00,
2013-06-13 09:02:00,64.0,52.0,-100.00,ENE,60,3.0,6.0,65,0.00,,,0.01,330.000000,,2013-06-13 14:02:00,
2013-06-13 09:11:00,64.0,52.0,-100.00,ENE,60,3.0,6.0,65,0.00,,,0.01,330.000000,,2013-06-13 14:11:00,
2013-06-13 09:43:00,66.0,52.0,-100.00,NNE,17,5.0,11.0,61,0.00,,,0.01,498.000000,,2013-06-13 14:43:00,
2013-06-13 09:53:00,66.0,52.0,-100.00,NNE,17,5.0,11.0,61,0.00,,,0.01,498.000000,,2013-06-13 14:53:00,
2013-06-13 10:02:00,66.0,52.0,-100.00,NNE,17,5.0,11.0,61,0.00,,,0.01,498.000000,,2013-06-13 15:02:00,
2013-06-13 10:12:00,66.0,52.0,-100.00,NNE,17,5.0,11.0,61,0.00,,,0.01,498.000000,,2013-06-13 15:12:00,
2013-06-13 11:02:00,67.0,52.0,-100.00,East,100,2.0,10.0,59,0.00,,,0.01,531.000000,,2013-06-13 16:02:00,
2013-06-13 11:12:00,67.0,52.0,-100.00,East,100,2.0,10.0,59,0.00,,,0.01,531.000000,,2013-06-13 16:12:00,
2013-06-13 11:43:00,70.0,52.0,-100.00,North,360,5.0,9.0,52,0.00,,,0.01,684.000000,,2013-06-13 16:43:00,
2013-06-13 11:53:00,70.0,52.0,-100.00,North,360,5.0,9.0,52,0.00,,,0.01,684.000000,,2013-06-13 16:53:00,
2013-06-13 12:02:00,70.0,52.0,-100.00,North,360,5.0,9.0,52,0.00,,,0.01,684.000000,,2013-06-13 17:02:00,
2013-06-13 12:11:00,70.0,52.0,-100.00,North,360,5.0,9.0,52,0.00,,,0.01,684.000000,,2013-06-13 17:11:00,
2013-06-13 12:43:00,71.0,51.0,-100.00,NNE,32,5.0,12.0,50,0.00,,,0.01,687.000000,,2013-06-13 17:43:00,
2013-06-13 12:53:00,71.0,51.0,-100.00,NNE,32,5.0,12.0,50,0.00,,,0.01,687.000000,,2013-06-13 17:53:00,
2013-06-13 13:02:00,71.0,51.0,-100.00,NNE,32,5.0,12.0,50,0.00,,,0.01,687.000000,,2013-06-13 18:02:00,
2013-06-13 13:11:00,71.0,51.0,-100.00,NNE,32,5.0,12.0,50,0.00,,,0.01,687.000000,,2013-06-13 18:11:00,
2013-06-13 13:43:00,73.0,50.0,-100.00,NNE,20,5.0,12.0,45,0.00,,,0.01,869.000000,,2013-06-13 18:43:00,
2013-06-13 13:52:00,73.0,50.0,-100.00,NNE,20,5.0,12.0,45,0.00,,,0.01,869.000000,,2013-06-13 18:52:00,
2013-06-13 14:01:00,73.0,50.0,-100.00,NNE,20,5.0,12.0,45,0.00,,,0.01,869.000000,,2013-06-13 19:01:00,
2013-06-13 14:11:00,73.0,50.0,-100.00,NNE,20,5.0,12.0,45,0.00,,,0.01,869.000000,,2013-06-13 19:11:00,
2013-06-13 14:43:00,75.0,51.0,-100.00,North,351,6.0,14.0,43,0.00,,,0.01,816.000000,,2013-06-13 19:43:00,
2013-06-13 14:53:00,75.0,51.0,-100.00,North,351,6.0,14.0,43,0.00,,,0.01,816.000000,,2013-06-13 19:53:00,
2013-06-13 15:02:00,75.0,51.0,-100.00,North,351,6.0,14.0,43,0.00,,,0.01,816.000000,,2013-06-13 20:02:00,
2013-06-13 15:11:00,75.0,51.0,-100.00,North,351,6.0,14.0,43,0.00,,,0.01,816.000000,,2013-06-13 20:11:00,
2013-06-13 15:44:00,76.0,49.0,-100.00,NE,39,4.0,12.0,39,0.00,,,0.00,785.000000,,2013-06-13 20:44:00,
2013-06-13 15:53:00,76.0,49.0,-100.00,NE,39,4.0,12.0,39,0.00,,,0.00,785.000000,,2013-06-13 20:53:00,
2013-06-13 16:02:00,76.0,49.0,-100.00,NE,39,4.0,12.0,39,0.00,,,0.00,785.000000,,2013-06-13 21:02:00,
2013-06-13 16:11:00,76.0,49.0,-100.00,NE,39,4.0,12.0,39,0.00,,,0.00,785.000000,,2013-06-13 21:11:00,
2013-06-13 16:43:00,77.0,49.0,-100.00,NE,48,4.0,14.0,38,0.00,,,0.00,699.000000,,2013-06-13 21:43:00,
2013-06-13 16:52:00,77.0,49.0,-100.00,NE,48,4.0,14.0,38,0.00,,,0.00,699.000000,,2013-06-13 21:52:00,
2013-06-13 17:02:00,77.0,49.0,-100.00,NE,48,4.0,14.0,38,0.00,,,0.00,699.000000,,2013-06-13 22:02:00,
2013-06-13 17:11:00,77.0,49.0,-100.00,NE,48,4.0,14.0,38,0.00,,,0.00,699.000000,,2013-06-13 22:11:00,
2013-06-13 17:43:00,78.0,49.0,-100.00,NE,45,5.0,13.0,36,0.00,,,0.00,622.000000,,2013-06-13 22:43:00,
2013-06-13 17:52:00,78.0,49.0,-100.00,NE,45,5.0,13.0,36,0.00,,,0.00,622.000000,,2013-06-13 22:52:00,
2013-06-13 18:02:00,78.0,49.0,-100.00,NE,45,5.0,13.0,36,0.00,,,0.00,622.000000,,2013-06-13 23:02:00,
2013-06-13 18:11:00,78.0,49.0,-100.00,NE,45,5.0,13.0,36,0.00,,,0.00,622.000000,,2013-06-13 23:11:00,
2013-06-13 18:43:00,78.0,48.0,-100.00,NE,40,4.0,12.0,35,0.00,,,0.00,461.000000,,2013-06-13 23:43:00,
2013-06-13 18:52:00,78.0,48.0,-100.00,NE,40,4.0,12.0,35,0.00,,,0.00,461.000000,,2013-06-13 23:52:00,
2013-06-13 19:01:00,78.0,48.0,-100.00,NE,40,4.0,12.0,35,0.00,,,0.00,461.000000,,2013-06-14 00:01:00,
2013-06-13 19:12:00,78.0,48.0,-100.00,NE,40,4.0,12.0,35,0.00,,,0.00,461.000000,,2013-06-14 00:12:00,
2013-06-13 19:43:00,77.0,47.0,-100.00,East,79,4.0,10.0,35,0.00,,,0.00,247.000000,,2013-06-14 00:43:00,
2013-06-13 19:53:00,77.0,47.0,-100.00,East,79,4.0,10.0,35,0.00,,,0.00,247.000000,,2013-06-14 00:53:00,
2013-06-13 20:01:00,77.0,47.0,-100.00,East,79,4.0,10.0,35,0.00,,,0.00,247.000000,,2013-06-14 01:01:00,
2013-06-13 20:11:00,77.0,47.0,-100.00,East,79,4.0,10.0,35,0.00,,,0.00,247.000000,,2013-06-14 01:11:00,
2013-06-13 20:43:00,72.0,46.0,-100.00,ENE,78,5.0,13.0,39,0.00,,,0.00,123.000000,,2013-06-14 01:43:00,
2013-06-13 20:52:00,72.0,46.0,-100.00,ENE,78,5.0,13.0,39,0.00,,,0.00,123.000000,,2013-06-14 01:52:00,
2013-06-13 21:02:00,72.0,46.0,-100.00,ENE,78,5.0,13.0,39,0.00,,,0.00,123.000000,,2013-06-14 02:02:00,
2013-06-13 21:11:00,72.0,46.0,-100.00,ENE,78,5.0,13.0,39,0.00,,,0.00,123.000000,,2013-06-14 02:11:00,
2013-06-13 21:43:00,66.0,46.0,-100.00,ENE,63,3.0,11.0,48,0.00,,,0.00,18.000000,,2013-06-14 02:43:00,
2013-06-13 21:53:00,66.0,46.0,-100.00,ENE,63,3.0,11.0,48,0.00,,,0.00,18.000000,,2013-06-14 02:53:00,
2013-06-13 22:02:00,66.0,46.0,-100.00,ENE,63,3.0,11.0,48,0.00,,,0.00,18.000000,,2013-06-14 03:02:00,
2013-06-13 22:12:00,66.0,46.0,-100.00,ENE,63,3.0,11.0,48,0.00,,,0.00,18.000000,,2013-06-14 03:12:00,
2013-06-13 22:43:00,57.0,48.0,-100.00,NNE,32,0.0,6.0,72,0.00,,,-99.99,0.000000,,2013-06-14 03:43:00,
2013-06-13 22:53:00,57.0,48.0,-100.00,NNE,32,0.0,6.0,72,0.00,,,-99.99,0.000000,,2013-06-14 03:53:00,
2013-06-13 23:01:00,57.0,48.0,-100.00,NNE,32,0.0,6.0,72,0.00,,,-99.99,0.000000,,2013-06-14 04:01:00,
2013-06-13 23:12:00,57.0,48.0,-100.00,NNE,32,0.0,6.0,72,0.00,,,-99.99,0.000000,,2013-06-14 04:12:00,
2013-06-13 23:43:00,52.0,49.0,-100.00,North,6,0.0,1.0,89,0.00,,,0.00,0.000000,,2013-06-14 04:43:00,
2013-06-13 23:53:00,52.0,49.0,-100.00,North,6,0.0,1.0,89,0.00,,,0.00,0.000000,,2013-06-14 04:53:00,